This is the latest recevied weather packets stored in our database for station/object ea1bqo-1. If no packets are shown the sender has not sent any weather packets the latest 10 day(s).
| Time | Temp. | Humidity | Pressure | Rain* | Wind** | Luminosity | Snow |
|---|---|---|---|---|---|---|---|
| 1788546900 | 31.11° C | 10% | 1017.9 hPa | 0 mm | - | - | - |
| 1788546359 | 32.22° C | 10% | 1017.8 hPa | 0 mm | - | - | - |
| 1788545820 | 32.78° C | 10% | 1017.7 hPa | 0 mm | - | - | - |
| 1788545279 | 33.89° C | 10% | 1017.6 hPa | 0 mm | - | - | - |
| 1788544739 | 33.89° C | 10% | 1017.4 hPa | 0 mm | - | - | - |
| 1788544200 | 33.89° C | 10% | 1017.5 hPa | 0 mm | - | - | - |
| 1788543659 | 33.33° C | 10% | 1017.6 hPa | 0 mm | - | - | - |
| 1788543119 | 33.33° C | 10% | 1017.7 hPa | 0 mm | - | - | - |
| 1788542579 | 32.78° C | 10% | 1018 hPa | 0 mm | - | - | - |
| 1788542039 | 32.78° C | 10% | 1018.1 hPa | 0 mm | - | - | - |
| 1788541499 | 32.78° C | 10% | 1018.1 hPa | 0 mm | - | - | - |
| 1788540959 | 32.78° C | 10% | 1018 hPa | 0 mm | - | - | - |
| 1788540419 | 32.78° C | 10% | 1018 hPa | 0 mm | - | - | - |
| 1788539879 | 32.78° C | 10% | 1018 hPa | 0 mm | - | - | - |
| 1788539339 | 33.33° C | 10% | 1018.1 hPa | 0 mm | - | - | - |
| 1788538799 | 33.33° C | 10% | 1018.1 hPa | 0 mm | - | - | - |
| 1788538259 | 33.33° C | 10% | 1018.3 hPa | 0 mm | - | - | - |
| 1788537719 | 33.33° C | 10% | 1018.3 hPa | 0 mm | - | - | - |
| 1788537179 | 32.78° C | 10% | 1018.4 hPa | 0 mm | - | - | - |
| 1788536639 | 32.78° C | 10% | 1018.3 hPa | 0 mm | - | - | - |
| 1788536099 | 32.78° C | 10% | 1018.4 hPa | 0 mm | - | - | - |
| 1788535559 | 33.33° C | 10% | 1018.6 hPa | 0 mm | - | - | - |
| 1788535019 | 33.33° C | 10% | 1018.6 hPa | 0 mm | - | - | - |
| 1788534479 | 33.89° C | 10% | 1018.6 hPa | 0 mm | - | - | - |
| 1788533939 | 34.44° C | 10% | 1018.6 hPa | 0 mm | - | - | - |
* Rain latest hour (hover to see other rain measurements)
** Current wind speed in m/s (hover to see current wind gust speed)